Date String (YYYY-MM-DD hh:mm:ss) UTC,Instrument flags,Ambient pressure (hPa),Sample flow (lpm),Bypass flow (lpm),Sample temperature (°C),Ambient temperature (°C),ASC tube jacket temperature (°C),LED temperature (°C),Box temperature (°C),Sample RH (%),Span deviation,Mass concentration (μg/m³),Mass concentration (μg/m³),Mass concentration (μg/m³)
DateTimeUTC,F1_M11,P_M11,Q1_M11,Q2_M11,T1_M11,T2_M11,T3_M11,T4_M11,T5_M11,U1_M11,ZSPAN_M11,X0_M11,X2_M11,X1_M11
2022-03-28 02:00:00,,0821.4,4.99,0.00,29.8,28.9,00.0,38.8,31.5,13.0,0002.9,0034.55,0018.10,0016.10
2022-03-28 02:01:00,,0821.4,4.99,0.00,29.8,28.9,00.0,38.8,31.5,12.9,0003.0,0033.72,0018.11,0016.09
2022-03-28 02:02:00,,0821.4,5.02,0.00,29.8,28.9,00.0,38.8,31.5,12.9,0003.4,0033.34,0018.04,0016.04
2022-03-28 02:03:00,,0821.4,4.99,0.00,29.8,28.9,00.0,38.8,31.5,12.9,0003.1,0032.89,0018.02,0016.05
2022-03-28 02:04:00,,0821.4,5.00,0.00,29.8,28.9,00.0,38.8,31.5,12.9,0003.3,0032.38,0018.01,0016.07
2022-03-28 02:05:00,,0821.4,5.01,0.00,29.8,28.9,00.0,38.8,31.5,12.9,0003.4,0032.38,0018.00,0016.12
2022-03-28 02:06:00,,0821.4,4.99,0.00,29.8,28.9,00.0,38.8,31.5,13.0,0003.4,0032.58,0018.04,0016.14
2022-03-28 02:07:00,,0821.4,4.99,0.00,29.8,28.9,00.0,38.8,31.5,13.0,0003.9,0032.83,0018.05,0016.17
2022-03-28 02:08:00,,0821.4,5.01,0.00,29.8,28.9,00.0,38.8,31.5,13.0,0003.7,0033.87,0018.09,0016.17
2022-03-28 02:09:00,,0821.4,4.99,0.00,29.8,28.9,00.0,38.8,31.5,13.0,0003.6,0034.97,0018.13,0016.16
2022-03-28 02:10:00,,0821.4,5.00,0.00,29.8,28.9,00.0,38.8,31.5,13.0,0002.7,0035.99,0018.09,0016.15
2022-03-28 02:11:00,,0821.4,5.01,0.00,29.8,28.9,00.0,38.8,31.5,13.0,0002.3,0036.53,0018.09,0016.13
2022-03-28 02:12:00,,0821.4,4.98,0.00,29.8,28.9,00.0,38.8,31.5,12.9,0002.0,0037.66,0018.09,0016.09
2022-03-28 02:13:00,,0821.4,5.00,0.00,29.8,28.9,00.0,38.8,31.5,12.9,0002.4,0037.96,0018.11,0016.10
2022-03-28 02:14:00,,0821.4,4.99,0.00,29.8,28.9,00.0,38.8,31.5,12.9,0002.2,0037.79,0018.10,0016.12
2022-03-28 02:15:00,,0821.4,5.00,0.00,29.8,28.9,00.0,38.8,31.5,12.9,0001.9,0037.38,0018.05,0016.12
2022-03-28 02:16:00,,0821.4,5.01,0.00,29.8,28.9,00.0,38.8,31.5,12.9,0001.9,0037.36,0018.00,0016.10
2022-03-28 02:17:00,,0821.4,4.98,0.00,29.8,28.9,00.0,38.7,31.5,12.9,0001.7,0037.68,0017.96,0016.06
2022-03-28 02:18:00,,0821.5,5.01,0.00,29.8,28.9,00.0,38.7,31.5,12.9,0001.9,0038.43,0017.94,0016.04
2022-03-28 02:19:00,,0821.4,4.99,0.00,29.8,28.9,00.0,38.7,31.5,12.9,0002.1,0040.16,0017.90,0016.02
2022-03-28 02:20:00,,0821.4,5.01,0.00,29.8,28.9,00.0,38.7,31.5,12.9,0002.2,0039.69,0017.83,0015.98
2022-03-28 02:21:00,,0821.4,4.99,0.00,29.8,28.9,00.0,38.7,31.5,12.9,0002.5,0038.74,0017.86,0015.97
2022-03-28 02:22:00,,0821.4,5.00,0.00,29.8,28.9,00.0,38.7,31.5,12.9,0002.5,0037.95,0017.85,0015.98
2022-03-28 02:23:00,,0821.4,4.99,0.00,29.8,28.9,00.0,38.7,31.5,12.9,0002.4,0037.40,0017.76,0015.96
2022-03-28 02:24:00,,0821.6,5.01,0.00,29.8,28.9,00.0,38.7,31.5,13.0,0001.5,0037.00,0017.76,0015.93
2022-03-28 02:25:00,,0821.5,5.00,0.00,29.8,28.9,00.0,38.7,31.5,13.0,0001.4,0036.38,0017.76,0015.91
2022-03-28 02:26:00,,0821.5,5.01,0.00,29.8,28.9,00.0,38.7,31.5,13.0,0001.2,0036.96,0017.81,0015.90
2022-03-28 02:27:00,,0821.5,4.99,0.00,29.8,28.9,00.0,38.7,31.5,12.9,0001.4,0038.00,0017.79,0015.91
2022-03-28 02:28:00,,0821.5,4.99,0.00,29.8,28.9,00.0,38.7,31.5,12.9,0002.2,0038.89,0017.83,0015.94
2022-03-28 02:29:00,,0821.5,5.00,0.00,29.7,28.9,00.0,38.7,31.5,12.9,0002.0,0039.47,0017.89,0015.94
2022-03-28 02:30:00,,0821.5,4.98,0.00,29.8,28.9,00.0,38.7,31.5,12.9,0001.7,0037.85,0017.95,0015.97
2022-03-28 02:31:00,,0821.6,5.02,0.00,29.8,28.9,00.0,38.7,31.5,13.0,0001.6,0037.79,0018.05,0016.03
2022-03-28 02:32:00,,0821.7,4.99,0.00,29.8,28.9,00.0,38.7,31.5,13.0,0002.1,0039.48,0018.13,0016.09
2022-03-28 02:33:00,,0821.7,5.00,0.00,29.7,28.9,00.0,38.7,31.5,13.0,0002.2,0039.63,0018.18,0016.13
2022-03-28 02:34:00,,0821.7,5.01,0.00,29.8,28.9,00.0,38.7,31.5,13.0,0002.6,0038.66,0018.33,0016.26
2022-03-28 02:35:00,,0821.7,4.99,0.00,29.7,28.9,00.0,38.7,31.5,13.0,0003.0,0038.98,0018.45,0016.41
2022-03-28 02:36:00,,0821.6,5.01,0.00,29.7,28.9,00.0,38.7,31.4,13.0,0003.1,0038.38,0018.58,0016.55
2022-03-28 02:37:00,,0821.5,5.00,0.00,29.7,28.8,00.0,38.7,31.5,13.0,0003.5,0037.80,0018.66,0016.66
2022-03-28 02:38:00,,0821.6,4.99,0.00,29.7,28.8,00.0,38.7,31.5,13.0,0003.7,0037.33,0018.79,0016.77
2022-03-28 02:39:00,,0821.7,5.01,0.00,29.7,28.8,00.0,38.7,31.5,13.0,0003.7,0035.03,0018.84,0016.85
2022-03-28 02:40:00,,0821.7,4.99,0.00,29.7,28.8,00.0,38.7,31.5,13.0,0003.7,0033.88,0018.98,0016.96
2022-03-28 02:41:00,,0821.7,4.99,0.00,29.7,28.8,00.0,38.7,31.5,13.0,0003.4,0033.13,0019.09,0017.05
2022-03-28 02:42:00,,0821.7,5.01,0.00,29.7,28.8,00.0,38.7,31.5,13.0,0003.6,0034.86,0019.16,0017.10
2022-03-28 02:43:00,,0821.7,4.99,0.00,29.7,28.8,00.0,38.7,31.5,13.0,0003.2,0034.60,0019.14,0017.12
2022-03-28 02:44:00,,0821.7,5.01,0.00,29.7,28.8,00.0,38.7,31.5,13.0,0003.1,0034.68,0019.17,0017.14
2022-03-28 02:45:00,,0821.7,5.01,0.00,29.7,28.8,00.0,38.7,31.5,13.0,0003.2,0035.67,0019.15,0017.16
2022-03-28 02:46:00,,0821.7,4.99,0.00,29.7,28.8,00.0,38.7,31.5,13.0,0003.2,0036.69,0019.22,0017.17
2022-03-28 02:47:00,,0821.7,5.01,0.00,29.7,28.8,00.0,38.7,31.5,13.0,0003.5,0037.02,0019.30,0017.19
2022-03-28 02:48:00,,0821.7,5.00,0.00,29.8,28.8,00.0,38.7,31.5,12.9,0003.3,0036.95,0019.33,0017.19
2022-03-28 02:49:00,,0821.7,4.99,0.00,29.8,28.8,00.0,38.7,31.5,12.9,0002.9,0036.94,0019.34,0017.19
2022-03-28 02:50:00,,0821.7,5.00,0.00,29.8,28.8,00.0,38.7,31.5,12.9,0002.5,0036.98,0019.40,0017.18
2022-03-28 02:51:00,,0821.7,5.03,0.00,29.8,28.8,00.0,38.7,31.5,12.9,0002.2,0037.32,0019.36,0017.16
2022-03-28 02:52:00,,0821.7,4.99,0.00,29.8,28.9,00.0,38.7,31.5,12.9,0002.4,0037.08,0019.32,0017.13
2022-03-28 02:53:00,,0821.7,4.99,0.00,29.8,28.9,00.0,38.7,31.5,12.9,0002.5,0034.75,0019.28,0017.14
2022-03-28 02:54:00,,0821.8,5.01,0.00,29.8,28.8,00.0,38.7,31.5,12.9,0002.4,0033.75,0019.33,0017.19
2022-03-28 02:55:00,,0821.8,4.99,0.00,29.8,28.8,00.0,38.7,31.5,12.9,0002.3,0034.41,0019.39,0017.26
2022-03-28 02:56:00,,0821.8,4.99,0.00,29.8,28.9,00.0,38.7,31.5,12.9,0002.3,0033.87,0019.48,0017.34
2022-03-28 02:57:00,,0821.8,5.02,0.00,29.8,28.9,00.0,38.7,31.5,12.9,0002.0,0032.42,0019.48,0017.40
2022-03-28 02:58:00,,0821.8,4.99,0.00,29.8,28.9,00.0,38.7,31.5,12.9,0001.8,0031.96,0019.46,0017.45
2022-03-28 02:59:00,,0821.8,5.00,0.00,29.8,28.9,00.0,38.7,31.5,12.9,0002.2,0033.91,0019.58,0017.56
